Theta_e
296 296 296 295 294 293 292 291 290 290 289 288 287 287 286 286 285 285 286 286 286 286 286 286 286 286 286 286 286 285 286 287
295 295 294 293 291 289 289 289 289 287 286 286 285 285 285 284 284 284 284 285 285 285 285 285 284 285 284 284 284 284 284 284
294 293 292 290 289 289 289 288 288 287 286 284 284 284 283 283 283 283 282 283 283 283 283 283 283 283 283 283 283 282 282 282
293 292 290 288 288 287 288 287 287 285 284 283 282 282 281 281 281 281 281 281 281 281 281 281 281 281 283 283 283 282 282 282
291 290 288 287 286 286 286 286 285 284 282 281 280 280 280 280 280 280 280 279 279 280 279 280 280 282 283 283 282 281 281 281
290 288 286 285 285 285 284 284 283 281 280 279 280 279 279 279 279 279 279 278 279 279 279 279 280 282 282 282 281 280 279 280
289 287 285 284 284 284 282 281 281 279 278 278 279 279 278 278 278 277 277 277 278 278 278 277 279 284 284 283 280 279 279 278
287 286 284 283 283 281 281 280 279 279 278 277 277 277 277 277 277 276 276 276 276 276 277 277 277 282 283 283 279 279 278 278
285 283 282 281 281 280 280 279 278 277 277 276 276 276 276 275 275 275 275 275 275 275 276 276 277 281 282 282 279 278 278 278
284 282 280 280 280 280 278 278 277 276 275 274 274 274 274 274 273 274 274 274 274 275 275 275 275 279 281 280 278 278 277 278
281 280 279 278 279 279 277 276 275 274 273 273 273 273 272 272 272 273 273 274 274 274 274 274 274 277 280 280 278 276 277 277
279 279 278 277 277 277 275 274 273 272 271 271 271 271 272 271 271 271 271 271 270 271 272 273 274 274 278 280 277 276 276 275
278 278 276 276 276 275 274 272 269 268 268 267 266 269 270 266 268 268 268 267 267 267 269 271 272 275 276 278 279 279 275 274
277 277 275 273 272 272 271 269 266 264 262 263 265 268 268 265 266 265 265 264 266 268 268 269 271 271 275 276 278 277 276 275
274 273 272 271 272 271 269 267 261 260 262 264 264 265 265 268 268 265 263 264 267 267 267 268 269 269 271 273 273 275 274 274
273 273 272 270 268 265 266 264 263 263 264 263 264 262 264 266 265 267 268 268 264 263 265 265 267 270 275 275 273 273 273 268
271 270 269 267 266 264 262 263 262 263 263 262 263 261 263 262 261 268 271 272 273 274 272 270 273 275 275 275 276 274 272 258
272 270 266 265 264 262 260 259 259 260 261 260 261 259 258 258 258 258 262 268 270 271 271 272 272 273 274 274 273 269 265 251
265 264 263 261 263 261 258 257 257 255 258 256 256 255 254 255 255 254 253 256 259 263 267 269 270 271 272 271 265 257 257 248
259 259 259 260 262 257 256 257 255 255 254 253 252 252 254 255 255 253 252 253 254 255 261 261 267 268 268 266 250 251 254 255
Wind_Speed
3 4 8 8 6 8 9 9 6 7 6 6 6 6 5 6 7 6 5 7 7 8 8 9 8 8 7 6 5 6 5 5
6 5 6 7 7 8 7 7 7 6 6 6 6 6 6 6 6 6 6 7 7 7 7 7 7 8 7 7 7 8 8 7
8 7 7 7 7 6 5 6 6 5 6 6 6 6 6 6 6 5 6 5 6 6 6 7 8 7 7 8 8 9 10 10
7 7 7 7 6 6 5 6 5 5 5 6 6 5 6 6 6 6 7 7 7 8 8 8 8 6 8 8 9 9 9 9
7 7 6 6 6 5 5 4 5 5 5 6 6 5 5 5 6 7 7 8 7 7 7 7 7 6 8 7 6 6 7 7
8 7 7 6 5 5 4 4 4 5 6 5 4 5 5 6 6 6 6 6 6 7 7 7 5 6 9 7 8 9 9 6
9 9 8 7 6 5 4 4 4 5 5 4 5 5 5 5 5 5 6 6 5 5 5 7 6 17 19 15 7 8 8 8
11 9 7 6 5 5 5 4 4 5 4 4 4 4 6 6 6 5 5 4 5 6 7 8 7 17 18 18 6 7 7 9
9 8 6 5 5 5 4 4 4 4 4 4 5 5 4 4 4 4 3 5 6 6 7 7 7 16 17 18 7 6 8 9
7 6 6 6 5 5 4 4 4 4 4 4 3 3 3 4 5 4 5 5 5 6 6 7 7 16 18 15 8 9 10 10
7 6 6 5 4 4 4 3 3 3 2 2 2 2 3 4 4 3 4 6 5 6 4 6 7 14 18 16 8 9 8 9
6 6 4 4 4 4 4 2 3 2 1 1 2 3 3 3 3 4 3 4 4 4 4 4 6 9 17 19 9 9 9 9
5 5 4 4 4 3 3 4 3 2 1 3 3 3 3 2 3 3 3 3 4 4 4 3 4 12 14 19 19 21 11 10
5 5 4 3 3 4 4 5 4 3 3 2 3 2 2 2 2 1 2 2 3 3 3 6 6 6 16 17 22 21 13 9
5 5 6 5 5 4 5 4 4 2 2 3 2 2 2 2 1 1 2 1 2 2 4 4 5 6 7 7 8 13 10 16
7 6 7 6 5 4 5 5 4 4 4 3 1 0 1 2 3 2 3 2 2 2 2 4 7 7 16 16 11 10 14 13
7 5 5 5 6 6 5 6 5 4 3 2 2 1 2 1 3 6 4 8 7 8 7 4 13 18 20 22 21 23 23 4
9 7 5 6 6 6 6 6 6 5 4 3 2 2 1 1 2 4 4 7 6 8 12 13 15 18 20 20 23 18 13 1
4 5 5 6 8 7 7 7 6 4 4 3 3 2 2 1 1 0 1 4 4 5 11 12 17 19 18 23 15 8 7 2
4 5 6 6 8 6 6 7 6 5 3 3 3 2 2 1 2 2 1 2 4 5 7 6 17 15 17 16 2 5 8 7
Wind_Direction
200 110 81 92 103 84 80 83 81 81 72 72 65 57 49 47 38 22 5 7 4 5 6 4 3 4 2 358 352 356 343 343
144 100 100 93 82 80 78 89 84 76 71 65 51 41 39 40 25 17 3 6 8 2 358 0 358 358 2 357 0 352 345 346
140 120 90 82 75 84 94 93 81 80 75 65 52 39 37 31 18 12 8 5 0 1 8 8 2 359 8 3 358 355 351 347
129 126 120 110 106 93 80 87 87 81 71 57 51 44 36 25 14 13 7 9 11 15 14 5 358 358 3 4 360 357 349 342
130 122 116 107 101 96 82 86 84 70 66 56 37 32 25 20 20 17 12 14 7 8 5 0 351 357 1 355 352 344 345 333
140 135 130 128 123 110 102 91 91 81 66 53 42 36 27 23 17 12 15 11 0 2 2 357 357 353 357 354 355 346 338 323
148 146 148 146 141 131 117 95 89 78 69 46 36 35 28 19 12 14 12 4 357 354 350 349 359 359 1 0 349 336 334 332
159 153 147 145 142 133 128 113 87 78 59 49 34 37 27 14 12 4 353 340 352 355 354 354 349 0 357 351 342 326 320 332
139 128 121 123 121 127 128 113 98 78 57 38 31 28 16 9 359 350 343 358 357 345 346 350 354 352 351 353 334 330 335 331
122 120 131 147 156 142 122 97 82 59 45 33 21 11 359 8 350 354 355 347 351 352 348 341 331 348 353 356 345 340 336 338
121 127 145 164 146 125 125 129 109 73 46 13 358 7 12 355 345 359 352 339 338 332 330 330 328 346 353 354 347 330 330 338
139 156 160 138 137 167 163 141 102 84 4 2 14 357 11 4 355 336 330 329 313 313 311 308 338 340 351 349 342 332 337 329
154 181 166 164 168 190 183 144 132 142 125 30 10 355 21 3 303 322 341 319 310 307 317 329 329 344 343 346 340 339 329 329
189 203 202 174 152 184 203 167 145 85 45 20 345 320 291 254 292 313 313 324 320 331 326 331 339 329 332 329 337 334 328 326
187 209 222 192 192 200 154 129 111 122 202 212 202 290 316 341 336 289 277 279 306 311 331 319 321 321 310 326 322 316 334 335
199 213 224 190 195 160 152 142 169 194 205 199 165 265 303 293 235 254 257 242 268 271 263 327 326 315 329 329 323 329 334 348
216 211 221 192 184 178 166 169 179 192 184 178 187 212 219 265 303 334 332 337 328 333 339 317 317 325 326 326 335 341 336 21
215 211 192 189 195 182 176 170 184 192 182 180 190 198 217 346 9 346 336 334 338 336 335 328 332 330 331 337 341 344 354 335
201 209 188 183 215 186 173 178 188 185 181 177 183 185 182 199 256 325 337 323 312 311 324 341 339 337 339 343 351 342 352 296
188 210 195 200 227 179 173 178 178 176 187 185 179 183 196 208 229 219 259 278 286 316 329 344 337 331 344 352 33 323 320 320